This demonstration page uses our WeatherBlox Daily Observations layout. Learn more.

Left ArrowRight Arrow

39.01783, -85.05884

Hourly Observations for October 3, 2022

Temp ( °F °C ) Dew Point ( °F °C ) Humidity (%) Winds ( mph kmh ) Pressure ( in mb ) Visibility ( mi km ) Precip ( " mm )
12:52 am 00:52 Clear 54 12.2 44 6.7 69 69 NE 12 19 30.24 1024 10 16 0.00 0.00
1:52 am 01:52 Clear 52 11.1 44 6.7 74 74 NE 13 20 30.24 1024 10 16 0.00 0.00
2:52 am 02:52 Clear 51 10.6 44 6.7 77 77 NE 9 15 30.23 1024 10 16 0.00 0.00
3:52 am 03:52 Clear 50 10 44 6.7 80 80 NNE 10 17 30.24 1024 10 16 0.00 0.00
4:52 am 04:52 Clear 49 9.4 45 7.2 86 86 NNE 9 15 30.24 1024 10 16 0.00 0.00
5:52 am 05:52 Clear 48 8.9 45 7.2 89 89 NE 9 15 30.25 1024 10 16 0.00 0.00
6:52 am 06:52 Clear 47 8.3 45 7.2 93 93 NE 7 11 30.27 1025 10 16 0.00 0.00
7:52 am 07:52 Sunny 47 8.3 45 7.2 93 93 NNE 8 13 30.28 1025 10 16 0.00 0.00
8:52 am 08:52 Sunny 49 9.4 45 7.2 86 86 NNE 9 15 30.30 1026 10 16 0.00 0.00
9:52 am 09:52 Sunny 52 11.1 46 7.8 80 80 NE 8 13 30.30 1026 10 16 0.00 0.00
10:52 am 10:52 Sunny 55 12.8 46 7.8 72 72 NE 5 7 30.30 1026 10 16 0.00 0.00
11:52 am 11:52 Sunny 61 16.1 48 8.9 62 62 NNE 8 13 30.29 1026 10 16 0.00 0.00
12:52 pm 12:52 Mostly Sunny 63 17.2 45 7.2 52 52 N 10 17 30.28 1026 10 16 0.00 0.00
1:52 pm 13:52 Sunny 65 18.3 43 6.1 45 45 NNE 7 11 30.27 1025 10 16 0.00 0.00
2:52 pm 14:52 Sunny 67 19.4 44 6.7 44 44 NE 7 11 30.25 1025 10 16 0.00 0.00
3:52 pm 15:52 Sunny 67 19.4 43 6.1 42 42 VRB 6 9 30.23 1024 10 16 0.00 0.00
4:52 pm 16:52 Sunny 69 20.6 40 4.4 34 34 NE 12 19 30.22 1024 10 16 0.00 0.00
5:52 pm 17:52 Mostly Sunny 68 20 37 2.8 32 32 NE 9 15 30.22 1023 10 16 0.00 0.00
6:52 pm 18:52 Mostly Sunny 66 18.9 38 3.3 35 35 NE 9 15 30.22 1024 10 16 0.00 0.00
7:52 pm 19:52 Clear 63 17.2 38 3.3 39 39 NNE 8 13 30.23 1024 10 16 0.00 0.00
8:52 pm 20:52 Clear 59 15 38 3.3 45 45 NNE 6 9 30.23 1024 10 16 0.00 0.00
9:52 pm 21:52 Clear 59 15 38 3.3 45 45 NE 8 13 30.23 1024 10 16 0.00 0.00
10:52 pm 22:52 Clear 59 15 36 2.2 42 42 NE 10 17 30.22 1024 10 16 0.00 0.00
11:52 pm 23:52 Clear 55 12.8 37 2.8 51 51 NE 8 13 30.22 1023 10 16 0.00 0.00

Powered by AerisWeather